[Iaude] MPEC L99: 2024 LN2 [a=2.66,e=0.55,i=10.8,H=20.4]
    mpec at cfa.harvard.edu 
    mpec at cfa.harvard.edu
       
    Sun Jun  9 17:17:45 EDT 2024
    
    
  
M.P.E.C. 2024-L99                                  Issued 2024 June 9, 21:16 UT
     The Minor Planet Electronic Circulars contain information on unusual
         minor planets, routine data on comets and natural satellites,
         and occasional editorial announcements.  They are published
    on behalf of Division F of the International Astronomical Union by the
          Minor Planet Center, Smithsonian Astrophysical Observatory,
                          Cambridge, MA 02138, U.S.A.
			  
             Prepared using the Tamkin Foundation Computer Network
                              MPC at CFA.HARVARD.EDU
            URL https://www.minorplanetcenter.net/    ISSN 1523-6714
                                    2024 LN2                                    
Observations:
     K24L02N* C2024 06 07.11830113 43 36.034-49 25 49.58         19.23cVEL099W68
     K24L02N  C2024 06 07.12198513 43 36.535-49 25 48.18         19.42cVEL099W68
     K24L02N  C2024 06 07.12799713 43 37.301-49 25 45.08         19.26cVEL099W68
     K24L02N  C2024 06 07.13866613 43 38.635-49 25 41.12         19.67cVEL099W68
     K24L02N  C2024 06 07.26161413 43 54.28 -49 24 37.1                WEL099X09
     K24L02N  C2024 06 07.26861413 43 55.29 -49 24 32.8                WEL099X09
     K24L02N KC2024 06 07.30008413 44 03.468-49 24 25.02         19.7 GVEL099474
     K24L02N KC2024 06 07.30222313 44 03.725-49 24 24.19         19.8 GVEL099474
     K24L02N KC2024 06 07.30436013 44 04.010-49 24 23.54         19.9 GVEL099474
     K24L02N KC2024 06 07.30649813 44 04.284-49 24 22.72         19.9 GVEL099474
     K24L02N KC2024 06 07.53729613 44 33.816-49 22 38.57         19.6 GVEL099474
     K24L02N KC2024 06 07.54370813 44 34.668-49 22 35.29         19.7 GVEL099474
     K24L02N KC2024 06 07.54584613 44 34.951-49 22 34.03         19.9 GVEL099474
     K24L02N KB2024 06 08.00018813 45 41.744-49 19 31.86         19.6 VZEL099Y05
     K24L02N KB2024 06 08.01314713 45 43.412-49 19 25.80         19.2 VZEL099Y05
     K24L02N KB2024 06 08.02590713 45 45.039-49 19 19.56         19.7 VZEL099Y05
     K24L02N KC2024 06 08.35187613 46 34.368-49 16 37.56         19.4 GVEL099474
     K24L02N KC2024 06 08.35401413 46 34.651-49 16 36.70         19.3 GVEL099474
     K24L02N KC2024 06 08.35615213 46 34.896-49 16 35.80         19.3 GVEL099474
     K24L02N KC2024 06 08.35828913 46 35.201-49 16 34.93         19.5 GVEL099474
     K24L02N  C2024 06 08.69515 13 47 27.08 -49 13 57.7          19.6 GVEL099M28
     K24L02N  C2024 06 08.69719 13 47 27.37 -49 13 56.9          19.4 GVEL099M28
     K24L02N  C2024 06 08.69921 13 47 27.65 -49 13 56.0          19.1 GVEL099M28
     K24L02N KC2024 06 09.77093 13 50 14.48 -49 05 06.2          19.3 GVEL099M21
     K24L02N KC2024 06 09.79657 13 50 18.12 -49 04 53.8                VEL099M21
Observer details:
474 Mount John Observatory, Lake Tekapo.  Observers A. C. Gilmore, P. M.
    Kilmartin.  Measurer P. M. Kilmartin.  1.0-m f/7.7 Reflector + CCD.
M21 Schiaparelli Southern Observatory, Hakos.  Observers A. Aletti, F.
    Bellini, L. Buzzi, G. Galli.  Measurer G. Galli.  0.36-m f/8.4 reflector +
    CCD.
M28 Lesedi Telescope-SAAO Observatory, Sutherland.  Observers N. Erasmus, S.
    Potter, C. van Gend, S. Chandra, H. Worters.  Measurers T. Ngwane, N.
    Erasmus.  1.0-m f/8 Reflector + CCD.
W68 ATLAS Chile, Rio Hurtado.  Observers L. Denneau, R. Siverd, J. Tonry, H.
    Weiland.  Measurers L. Denneau, N. Erasmus, A. Fitzsimmons, J. Robinson,
    R. Siverd, J. Tonry, H. Weiland.  0.5-m Reflector + CCD.
X09 Deep Random Survey, Rio Hurtado.  Observers A. Schnabel, D. Ruhela.
    Measurer S. Deen.  0.43-m reflector + CMOS.
Y05 SONEAR Wykrota-CEAMIG, Serra da Piedade.  Observers C. Jacques, A.
    Caetano, E. Pimentel.  Measurer C. Jacques.  0.45-m f/2.9 reflector + CMO.
Orbital elements:
2024 LN2                                                 Earth MOID = 0.1920 AU
Epoch 2024 Mar. 31.0 TT = JDT 2460400.5                 MPC                     
M 338.78027              (2000.0)            P               Q                  
n   0.22711324     Peri.  336.11238     +0.06444001     +0.98389284             
a   2.6605683      Node   297.21571     -0.88271952     -0.02173512             
e   0.5504774      Incl.   10.80681     -0.46546078     +0.17743297             
P   4.34           H   20.44          G   0.15           U   9                  
Residuals in seconds of arc
240607 W68  0.5-  0.5+    240607 474  0.0   0.0     240608 474  0.3-  0.0
240607 W68  0.0   0.1+    240607 474  0.0   0.1-    240608 474  0.1-  0.1-
240607 W68  0.3+  0.4+    240607 474  0.0   0.2-    240608 M28  0.1+  0.2-
240607 W68  0.5+  0.7-    240607 474  0.1-  0.0     240608 M28  0.2+  0.3-
240607 X09  0.8-  0.4-    240608 Y05  0.2-  0.1-    240608 M28  0.2+  0.2-
240607 X09  0.1-  0.1+    240608 Y05  0.0   0.2-    240609 M21  0.1+  0.4+
240607 474  0.0   0.1+    240608 Y05  0.1-  0.2-    240609 M21  0.3-  0.1+
240607 474  0.1-  0.1+    240608 474  0.2+  0.1+
240607 474  0.0   0.0     240608 474  0.2+  0.0
Ephemeris:
2024 LN2                 a,e,i = 2.66, 0.55, 11                  q = 1.1960
Date    TT    R. A. (2000) Decl.     Delta      r    Elong.  Phase     V
2024 05 10    13 25 26.5 -49 15 41   0.3946  1.3434   142.2    27.5    20.3
...
2024 05 25    13 24 57.6 -50 09 36   0.3329  1.2757   136.7    33.0    20.0
...
2024 06 02    13 33 41.7 -49 53 47   0.3057  1.2470   134.3    35.6    19.8
...
2024 06 08    13 45 42.0 -49 19 17   0.2876  1.2292   133.0    37.2    19.7
2024 06 09    13 48 11.9 -49 11 25   0.2848  1.2266   132.8    37.4    19.7
2024 06 10    13 50 50.7 -49 02 53   0.2820  1.2241   132.7    37.6    19.6
...
2024 06 16    14 09 48.6 -47 56 20   0.2667  1.2112   132.2    38.4    19.5
...
2024 06 24    14 42 52.7 -45 36 32   0.2501  1.2000   132.7    38.5    19.4
...
2024 07 09    16 00 25.7 -37 45 32   0.2368  1.1984   136.0    36.1    19.2
A. U. Tomatic                (C) Copyright 2024 MPC           M.P.E.C. 2024-L99
    
    
More information about the Iaude
mailing list